Volver al catálogo

KUIPER-00440

ActivoComunicacionesLEO
NORAD 68942·PAYLOAD·🇺🇸 United States

Lanzado Apr 30, 2026 desde Guiana Space Centre

Loading…

Próximos Pases (próximas 24 horas)

TLE

ActualizadoSource: CelesTrak SupGP

Época: Sep 14, 2026, 18:05 UTC

1 68942C 26098Z   26257.75381944  .00007445  00000+0  97466-3 0  2578
2 68942  51.9037  12.1100 0000317   5.6597  53.9048 14.79919870    19

Sigue KUIPER-00440 en tiempo real con AllMySat

Download on the App Store